STARLINK-1660 (46574 NORAD) Tracking and Keplerian Element Data

This shows tracking and keplerian element data for the satellite.

Feedback or suggestion? Click here.




ElementValue
Catalog46574
NameSTARLINK-1660
Epoch Orbit178
Epoch Day338.66668981
Epoch Year2020
RAAN156.6852
Inclination53.0007
Eccentricity0.0002111
Argument of Perigee24.4821
Mean Anonmoly139.6793
Mean Motion15.6275021
Decay Rate-0.00021487
L11 46574U 20070AU 20338.66668981 -.00021487 00000-0 -22943-3 0 9998
L22 46574 53.0007 156.6852 0002111 24.4821 139.6793 15.62750210 1785

Live tracking and technical data element details for STARLINK-1660 (NORAD 46574). STARLINK-1660 can be tracked NOW for your location showing map with azimuth and elevation plus other details from your city location.

Track the satellite on the map from your city or location and see movement details for azimuth, elevation, latitude, longitude, range, height, and movement on the map or in text.







IsCatalogInMostPopularTable: catalog: 46574, numindb: 15
Update: records affected: 1



GetName: 46574 STARLINK-1660

Hit Count: updated at: Sun, 06 Dec 2020 00:36:55 GMT